Year,Month,Day,Hour,Minute,Value (Times are PST for windspeed in km/hr)
2014,12,11,00,00,2.90
2014,12,11,00,01,1.30
2014,12,11,00,02,2.80
2014,12,11,00,03,4.10
2014,12,11,00,04,5.40
2014,12,11,00,05,4.30
2014,12,11,00,06,6.30
2014,12,11,00,07,8.00
2014,12,11,00,08,6.50
2014,12,11,00,09,2.40
2014,12,11,00,10,3.20
2014,12,11,00,11,3.00
2014,12,11,00,12,10.80
2014,12,11,00,13,7.20
2014,12,11,00,14,4.60
2014,12,11,00,15,7.40
2014,12,11,00,16,8.10
2014,12,11,00,17,7.60
2014,12,11,00,18,4.90
2014,12,11,00,19,9.20
2014,12,11,00,20,7.70
2014,12,11,00,21,7.10
2014,12,11,00,22,5.20
2014,12,11,00,23,9.30
2014,12,11,00,24,6.80
2014,12,11,00,25,4.70
2014,12,11,00,26,3.40
2014,12,11,00,27,6.10
2014,12,11,00,28,2.90
2014,12,11,00,29,4.70
2014,12,11,00,30,1.90
2014,12,11,00,31,2.00
2014,12,11,00,32,3.80
2014,12,11,00,33,4.40
2014,12,11,00,34,3.70
2014,12,11,00,35,5.20
2014,12,11,00,36,5.60
2014,12,11,00,37,6.30
2014,12,11,00,38,6.00
2014,12,11,00,39,5.20
2014,12,11,00,40,3.00
2014,12,11,00,41,2.30
2014,12,11,00,42,1.40
2014,12,11,00,43,2.10
2014,12,11,00,44,3.70
2014,12,11,00,45,3.10
2014,12,11,00,46,3.00
2014,12,11,00,47,2.50
2014,12,11,00,48,6.50
2014,12,11,00,49,6.20
2014,12,11,00,50,3.70
2014,12,11,00,51,1.80
2014,12,11,00,52,0.20
2014,12,11,00,53,0.40
2014,12,11,00,54,1.30
2014,12,11,00,55,1.70
2014,12,11,00,56,3.30
2014,12,11,00,57,1.30
2014,12,11,00,58,1.30
2014,12,11,00,59,1.10
2014,12,11,01,00,0.70
2014,12,11,01,01,1.80
2014,12,11,01,02,2.70
2014,12,11,01,03,2.10
2014,12,11,01,04,3.90
2014,12,11,01,05,5.40
2014,12,11,01,06,2.80
2014,12,11,01,07,4.00
2014,12,11,01,08,3.00
2014,12,11,01,09,2.20
2014,12,11,01,10,3.90
2014,12,11,01,11,1.60
2014,12,11,01,12,0.80
2014,12,11,01,13,0.60
2014,12,11,01,14,3.50
2014,12,11,01,15,2.50
2014,12,11,01,16,3.00
2014,12,11,01,17,4.80
2014,12,11,01,18,4.00
2014,12,11,01,19,1.20
2014,12,11,01,20,0.90
2014,12,11,01,21,2.30
2014,12,11,01,22,1.40
2014,12,11,01,23,4.20
2014,12,11,01,24,2.30
2014,12,11,01,25,4.00
2014,12,11,01,26,8.00
2014,12,11,01,27,5.00
2014,12,11,01,28,7.90
2014,12,11,01,29,5.50
2014,12,11,01,30,2.60
2014,12,11,01,31,3.30
2014,12,11,01,32,6.70
2014,12,11,01,33,6.00
2014,12,11,01,34,4.60
2014,12,11,01,35,6.70
2014,12,11,01,36,3.60
2014,12,11,01,37,3.80
2014,12,11,01,38,7.80
2014,12,11,01,39,4.70
2014,12,11,01,40,7.70
2014,12,11,01,41,7.30
2014,12,11,01,42,8.40
2014,12,11,01,43,9.50
2014,12,11,01,44,7.50
2014,12,11,01,45,9.20
2014,12,11,01,46,5.50
2014,12,11,01,47,8.20
2014,12,11,01,48,8.50
2014,12,11,01,49,7.40
2014,12,11,01,50,8.80
2014,12,11,01,51,10.10
2014,12,11,01,52,8.90
2014,12,11,01,53,7.40
2014,12,11,01,54,4.60
2014,12,11,01,55,5.70
2014,12,11,01,56,5.70
2014,12,11,01,57,6.70
2014,12,11,01,58,7.70
2014,12,11,01,59,7.00
2014,12,11,02,00,5.90
2014,12,11,02,01,4.80
2014,12,11,02,02,5.50
2014,12,11,02,03,3.80
2014,12,11,02,04,7.80
2014,12,11,02,05,5.30
2014,12,11,02,06,4.50
2014,12,11,02,07,4.70
2014,12,11,02,08,5.20
2014,12,11,02,09,3.60
2014,12,11,02,10,0.70
2014,12,11,02,11,3.00
2014,12,11,02,12,3.50
2014,12,11,02,13,4.40
2014,12,11,02,14,4.40
2014,12,11,02,15,3.90
2014,12,11,02,16,2.60
2014,12,11,02,17,4.70
2014,12,11,02,18,4.20
2014,12,11,02,19,3.40
2014,12,11,02,20,5.90
2014,12,11,02,21,6.80
2014,12,11,02,22,4.90
2014,12,11,02,23,6.80
2014,12,11,02,24,3.70
2014,12,11,02,25,2.30
2014,12,11,02,26,3.40
2014,12,11,02,27,3.20
2014,12,11,02,28,6.60
2014,12,11,02,29,9.00
2014,12,11,02,30,8.30
2014,12,11,02,31,11.80
2014,12,11,02,32,11.30
2014,12,11,02,33,9.50
2014,12,11,02,34,8.20
2014,12,11,02,35,8.90
2014,12,11,02,36,8.10
2014,12,11,02,37,11.00
2014,12,11,02,38,7.10
2014,12,11,02,39,4.20
2014,12,11,02,40,7.30
2014,12,11,02,41,6.30
2014,12,11,02,42,7.40
2014,12,11,02,43,8.30
2014,12,11,02,44,10.40
2014,12,11,02,45,8.00
2014,12,11,02,46,14.00
2014,12,11,02,47,6.40
2014,12,11,02,48,5.50
2014,12,11,02,49,7.30
2014,12,11,02,50,4.50
2014,12,11,02,51,11.30
2014,12,11,02,52,12.50
2014,12,11,02,53,10.70
2014,12,11,02,54,12.90
2014,12,11,02,55,6.00
2014,12,11,02,56,10.70
2014,12,11,02,57,9.70
2014,12,11,02,58,8.50
2014,12,11,02,59,8.60
2014,12,11,03,00,13.60
2014,12,11,03,01,10.00
2014,12,11,03,02,5.90
2014,12,11,03,03,11.20
2014,12,11,03,04,11.50
2014,12,11,03,05,6.00
2014,12,11,03,06,3.20
2014,12,11,03,07,7.30
2014,12,11,03,08,10.30
2014,12,11,03,09,5.90
2014,12,11,03,10,9.80
2014,12,11,03,11,13.20
2014,12,11,03,12,12.10
2014,12,11,03,13,8.50
2014,12,11,03,14,11.40
2014,12,11,03,15,13.40
2014,12,11,03,16,13.70
2014,12,11,03,17,7.00
2014,12,11,03,18,7.00
2014,12,11,03,19,10.20
2014,12,11,03,20,15.50
2014,12,11,03,21,7.50
2014,12,11,03,22,6.00
2014,12,11,03,23,9.20
2014,12,11,03,24,8.10
2014,12,11,03,25,7.40
2014,12,11,03,26,7.50
2014,12,11,03,27,8.20
2014,12,11,03,28,6.80
2014,12,11,03,29,7.30
2014,12,11,03,30,4.00
2014,12,11,03,31,7.30
2014,12,11,03,32,11.50
2014,12,11,03,33,5.00
2014,12,11,03,34,9.80
2014,12,11,03,35,6.20
2014,12,11,03,36,10.40
2014,12,11,03,37,6.40
2014,12,11,03,38,8.90
2014,12,11,03,39,5.40
2014,12,11,03,40,7.40
2014,12,11,03,41,8.30
2014,12,11,03,42,4.00
2014,12,11,03,43,9.70
2014,12,11,03,44,8.20
2014,12,11,03,45,7.80
2014,12,11,03,46,2.30
2014,12,11,03,47,5.70
2014,12,11,03,48,8.30
2014,12,11,03,49,2.90
2014,12,11,03,50,6.80
2014,12,11,03,51,3.90
2014,12,11,03,52,2.90
2014,12,11,03,53,10.40
2014,12,11,03,54,5.40
2014,12,11,03,55,6.80
2014,12,11,03,56,4.30
2014,12,11,03,57,3.30
2014,12,11,03,58,3.20
2014,12,11,03,59,4.30
2014,12,11,04,00,4.30
2014,12,11,04,01,8.40
2014,12,11,04,02,4.60
2014,12,11,04,03,10.50
2014,12,11,04,04,8.40
2014,12,11,04,05,8.90
2014,12,11,04,06,10.90
2014,12,11,04,07,9.80
2014,12,11,04,08,7.20
2014,12,11,04,09,6.90
2014,12,11,04,10,5.70
2014,12,11,04,11,5.00
2014,12,11,04,12,9.40
2014,12,11,04,13,8.90
2014,12,11,04,14,6.20
2014,12,11,04,15,11.60
2014,12,11,04,16,7.10
2014,12,11,04,17,11.00
2014,12,11,04,18,10.50
2014,12,11,04,19,13.50
2014,12,11,04,20,7.00
2014,12,11,04,21,5.90
2014,12,11,04,22,12.40
2014,12,11,04,23,7.50
2014,12,11,04,24,10.70
2014,12,11,04,25,9.50
2014,12,11,04,26,16.50
2014,12,11,04,27,15.40
2014,12,11,04,28,12.00
2014,12,11,04,29,13.50
2014,12,11,04,30,8.10
2014,12,11,04,31,10.50
2014,12,11,04,32,12.10
2014,12,11,04,33,14.60
2014,12,11,04,34,5.80
2014,12,11,04,35,9.40
2014,12,11,04,36,11.70
2014,12,11,04,37,6.70
2014,12,11,04,38,5.30
2014,12,11,04,39,10.80
2014,12,11,04,40,10.30
2014,12,11,04,41,10.10
2014,12,11,04,42,13.30
2014,12,11,04,43,10.10
2014,12,11,04,44,8.50
2014,12,11,04,45,5.30
2014,12,11,04,46,8.70
2014,12,11,04,47,11.00
2014,12,11,04,48,9.00
2014,12,11,04,49,10.10
2014,12,11,04,50,6.40
2014,12,11,04,51,12.00
2014,12,11,04,52,7.90
2014,12,11,04,53,9.80
2014,12,11,04,54,9.90
2014,12,11,04,55,12.20
2014,12,11,04,56,9.30
2014,12,11,04,57,8.50
2014,12,11,04,58,10.00
2014,12,11,04,59,8.70
2014,12,11,05,00,10.00
2014,12,11,05,01,17.70
2014,12,11,05,02,6.80
2014,12,11,05,03,10.80
2014,12,11,05,04,7.80
2014,12,11,05,05,10.30
2014,12,11,05,06,7.20
2014,12,11,05,07,6.40
2014,12,11,05,08,12.80
2014,12,11,05,09,8.70
2014,12,11,05,10,7.10
2014,12,11,05,11,14.60
2014,12,11,05,12,10.40
2014,12,11,05,13,9.80
2014,12,11,05,14,11.60
2014,12,11,05,15,10.50
2014,12,11,05,16,13.00
2014,12,11,05,17,10.10
2014,12,11,05,18,9.40
2014,12,11,05,19,10.40
2014,12,11,05,20,11.60
2014,12,11,05,21,10.60
2014,12,11,05,22,7.40
2014,12,11,05,23,12.30
2014,12,11,05,24,13.20
2014,12,11,05,25,7.70
2014,12,11,05,26,5.70
2014,12,11,05,27,3.70
2014,12,11,05,28,5.60
2014,12,11,05,29,6.70
2014,12,11,05,30,8.10
2014,12,11,05,31,12.00
2014,12,11,05,32,8.50
2014,12,11,05,33,5.20
2014,12,11,05,34,4.70
2014,12,11,05,35,3.90
2014,12,11,05,36,2.80
2014,12,11,05,37,2.40
2014,12,11,05,38,2.70
2014,12,11,05,39,3.70
2014,12,11,05,40,5.40
2014,12,11,05,41,4.30
2014,12,11,05,42,4.30
2014,12,11,05,43,4.70
2014,12,11,05,44,7.70
2014,12,11,05,45,5.80
2014,12,11,05,46,7.40
2014,12,11,05,47,10.60
2014,12,11,05,48,6.60
2014,12,11,05,49,2.10
2014,12,11,05,50,3.00
2014,12,11,05,51,6.80
2014,12,11,05,52,12.40
2014,12,11,05,53,6.80
2014,12,11,05,54,7.20
2014,12,11,05,55,7.40
2014,12,11,05,56,5.50
2014,12,11,05,57,4.80
2014,12,11,05,58,3.10
2014,12,11,05,59,5.00
2014,12,11,06,00,9.70
2014,12,11,06,01,7.20
2014,12,11,06,02,5.90
2014,12,11,06,03,4.00
2014,12,11,06,04,3.40
2014,12,11,06,05,7.80
2014,12,11,06,06,9.30
2014,12,11,06,07,6.60
2014,12,11,06,08,8.30
2014,12,11,06,09,6.80
2014,12,11,06,10,7.80
2014,12,11,06,11,11.50
2014,12,11,06,12,7.50
2014,12,11,06,13,4.90
2014,12,11,06,14,4.70
2014,12,11,06,15,5.90
2014,12,11,06,16,7.30
2014,12,11,06,17,7.70
2014,12,11,06,18,4.90
2014,12,11,06,19,3.20
2014,12,11,06,20,2.90
2014,12,11,06,21,5.70
2014,12,11,06,22,3.20
2014,12,11,06,23,3.50
2014,12,11,06,24,4.40
2014,12,11,06,25,2.80
2014,12,11,06,26,4.70
2014,12,11,06,27,2.50
2014,12,11,06,28,2.10
2014,12,11,06,29,3.00
2014,12,11,06,30,1.90
2014,12,11,06,31,1.80
2014,12,11,06,32,2.20
2014,12,11,06,33,2.60
2014,12,11,06,34,2.40
2014,12,11,06,35,3.20
2014,12,11,06,36,1.70
2014,12,11,06,37,1.70
2014,12,11,06,38,2.80
2014,12,11,06,39,2.80
2014,12,11,06,40,2.00
2014,12,11,06,41,1.40
2014,12,11,06,42,2.30
2014,12,11,06,43,0.80
2014,12,11,06,44,1.60
2014,12,11,06,45,2.10
2014,12,11,06,46,2.60
2014,12,11,06,47,1.30
2014,12,11,06,48,2.30
2014,12,11,06,49,4.50
2014,12,11,06,50,2.90
2014,12,11,06,51,2.20
2014,12,11,06,52,0.50
2014,12,11,06,53,2.10
2014,12,11,06,54,1.40
2014,12,11,06,55,0.10
2014,12,11,06,56,0.00
2014,12,11,06,57,0.00
2014,12,11,06,58,0.10
2014,12,11,06,59,0.00
2014,12,11,07,00,0.00
2014,12,11,07,01,1.00
2014,12,11,07,02,0.70
2014,12,11,07,03,0.00
2014,12,11,07,04,0.10
2014,12,11,07,05,0.60
2014,12,11,07,06,0.10
2014,12,11,07,07,0.30
2014,12,11,07,08,0.50
2014,12,11,07,09,0.80
2014,12,11,07,10,0.00
2014,12,11,07,11,0.00
2014,12,11,07,12,0.10
2014,12,11,07,13,1.50
2014,12,11,07,14,3.00
2014,12,11,07,15,2.00
2014,12,11,07,16,2.90
2014,12,11,07,17,2.60
2014,12,11,07,18,3.30
2014,12,11,07,19,3.40
2014,12,11,07,20,3.40
2014,12,11,07,21,3.80
2014,12,11,07,22,1.40
2014,12,11,07,23,1.00
2014,12,11,07,24,1.90
2014,12,11,07,25,1.80
2014,12,11,07,26,0.60
2014,12,11,07,27,2.50
2014,12,11,07,28,1.80
2014,12,11,07,29,0.30
2014,12,11,07,30,0.20
2014,12,11,07,31,0.40
2014,12,11,07,32,0.10
2014,12,11,07,33,0.00
2014,12,11,07,34,0.00
2014,12,11,07,35,0.00
2014,12,11,07,36,1.30
2014,12,11,07,37,1.40
2014,12,11,07,38,0.10
2014,12,11,07,39,1.20
2014,12,11,07,40,2.10
2014,12,11,07,41,1.70
2014,12,11,07,42,2.30
2014,12,11,07,43,3.00
2014,12,11,07,44,1.60
2014,12,11,07,45,1.60
2014,12,11,07,46,1.80
2014,12,11,07,47,1.20
2014,12,11,07,48,0.80
2014,12,11,07,49,0.00
2014,12,11,07,50,0.00
2014,12,11,07,51,0.00
2014,12,11,07,52,0.00
2014,12,11,07,53,0.00
2014,12,11,07,54,0.00
2014,12,11,07,55,0.00
2014,12,11,07,56,0.00
2014,12,11,07,57,0.00
2014,12,11,07,58,0.10
2014,12,11,07,59,0.30
2014,12,11,08,00,0.00
2014,12,11,08,01,0.00
2014,12,11,08,02,0.00
2014,12,11,08,03,0.00
2014,12,11,08,04,0.00
2014,12,11,08,05,0.80
2014,12,11,08,06,1.30
2014,12,11,08,07,1.10
2014,12,11,08,08,0.80
2014,12,11,08,09,1.00
2014,12,11,08,10,1.20
2014,12,11,08,11,1.90
2014,12,11,08,12,2.10
2014,12,11,08,13,1.60
2014,12,11,08,14,1.20
2014,12,11,08,15,1.60
2014,12,11,08,16,1.00
2014,12,11,08,17,0.80
2014,12,11,08,18,0.20
2014,12,11,08,19,0.00
2014,12,11,08,20,1.00
2014,12,11,08,21,0.70
2014,12,11,08,22,0.70
2014,12,11,08,23,0.00
2014,12,11,08,24,0.00
2014,12,11,08,25,0.00
2014,12,11,08,26,0.00
2014,12,11,08,27,0.00
2014,12,11,08,28,0.00
2014,12,11,08,29,0.00
2014,12,11,08,30,0.00
2014,12,11,08,31,0.00
2014,12,11,08,32,0.00
2014,12,11,08,33,0.00
2014,12,11,08,34,0.10
2014,12,11,08,35,1.00
2014,12,11,08,36,1.70
2014,12,11,08,37,1.70
2014,12,11,08,38,2.90
2014,12,11,08,39,2.20
2014,12,11,08,40,2.30
2014,12,11,08,41,1.80
2014,12,11,08,42,2.00
2014,12,11,08,43,2.80
2014,12,11,08,44,2.50
2014,12,11,08,45,2.40
2014,12,11,08,46,2.10
2014,12,11,08,47,1.90
2014,12,11,08,48,1.60
2014,12,11,08,49,1.30
2014,12,11,08,50,1.80
2014,12,11,08,51,2.10
2014,12,11,08,52,2.00
2014,12,11,08,53,1.80
2014,12,11,08,54,2.20
2014,12,11,08,55,2.30
2014,12,11,08,56,2.30
2014,12,11,08,57,2.50
2014,12,11,08,58,1.60
2014,12,11,08,59,1.70
2014,12,11,09,00,1.80
2014,12,11,09,01,2.00
2014,12,11,09,02,2.50
2014,12,11,09,03,1.90
2014,12,11,09,04,2.30
2014,12,11,09,05,1.20
2014,12,11,09,06,1.20
2014,12,11,09,07,1.00
2014,12,11,09,08,0.30
2014,12,11,09,09,0.90
2014,12,11,09,10,1.90
2014,12,11,09,11,2.50
2014,12,11,09,12,2.90
2014,12,11,09,13,2.00
2014,12,11,09,14,1.20
2014,12,11,09,15,0.00
2014,12,11,09,16,0.00
2014,12,11,09,17,1.10
2014,12,11,09,18,1.90
2014,12,11,09,19,3.00
2014,12,11,09,20,2.70
2014,12,11,09,21,2.10
2014,12,11,09,22,1.10
2014,12,11,09,23,1.20
2014,12,11,09,24,0.80
2014,12,11,09,25,1.50
2014,12,11,09,26,0.90
2014,12,11,09,27,2.10
2014,12,11,09,28,1.70
2014,12,11,09,29,2.00
2014,12,11,09,30,1.70
2014,12,11,09,31,0.90
2014,12,11,09,32,0.70
2014,12,11,09,33,1.70
2014,12,11,09,34,1.80
2014,12,11,09,35,1.60
2014,12,11,09,36,1.70
2014,12,11,09,37,1.90
2014,12,11,09,38,2.70
2014,12,11,09,39,2.10
2014,12,11,09,40,2.10
2014,12,11,09,41,2.40
2014,12,11,09,42,2.90
2014,12,11,09,43,2.80
2014,12,11,09,44,2.30
2014,12,11,09,45,1.80
2014,12,11,09,46,1.70
2014,12,11,09,47,0.80
2014,12,11,09,48,0.60
2014,12,11,09,49,0.50
2014,12,11,09,50,1.10
2014,12,11,09,51,1.00
2014,12,11,09,52,2.10
2014,12,11,09,53,2.30
2014,12,11,09,54,2.00
2014,12,11,09,55,3.60
2014,12,11,09,56,2.80
2014,12,11,09,57,3.40
2014,12,11,09,58,3.00
2014,12,11,09,59,2.30
2014,12,11,10,00,1.90
2014,12,11,10,01,3.50
2014,12,11,10,02,3.70
2014,12,11,10,03,4.40
2014,12,11,10,04,3.60
2014,12,11,10,05,3.50
2014,12,11,10,06,4.90
2014,12,11,10,07,4.10
2014,12,11,10,08,4.40
2014,12,11,10,09,4.10
2014,12,11,10,10,3.70
2014,12,11,10,11,1.80
2014,12,11,10,12,1.20
2014,12,11,10,13,3.60
2014,12,11,10,14,4.30
2014,12,11,10,15,2.90
2014,12,11,10,16,3.90
2014,12,11,10,17,4.00
2014,12,11,10,18,2.90
2014,12,11,10,19,2.30
2014,12,11,10,20,1.70
2014,12,11,10,21,2.20
2014,12,11,10,22,2.50
2014,12,11,10,23,3.90
2014,12,11,10,24,4.20
2014,12,11,10,25,3.90
2014,12,11,10,26,3.10
2014,12,11,10,27,2.50
2014,12,11,10,28,1.90
2014,12,11,10,29,2.00
2014,12,11,10,30,2.20
2014,12,11,10,31,2.60
2014,12,11,10,32,4.40
2014,12,11,10,33,4.40
2014,12,11,10,34,3.30
2014,12,11,10,35,3.30
2014,12,11,10,36,4.90
2014,12,11,10,37,4.90
2014,12,11,10,38,6.30
2014,12,11,10,39,9.00
2014,12,11,10,40,9.00
2014,12,11,10,41,7.90
2014,12,11,10,42,7.50
2014,12,11,10,43,6.40
2014,12,11,10,44,7.30
2014,12,11,10,45,4.30
2014,12,11,10,46,5.20
2014,12,11,10,47,8.20
2014,12,11,10,48,6.20
2014,12,11,10,49,3.50
2014,12,11,10,50,5.40
2014,12,11,10,51,5.60
2014,12,11,10,52,6.40
2014,12,11,10,53,6.80
2014,12,11,10,54,5.20
2014,12,11,10,55,5.50
2014,12,11,10,56,7.30
2014,12,11,10,57,7.30
2014,12,11,10,58,10.10
2014,12,11,10,59,7.80
2014,12,11,11,00,9.20
2014,12,11,11,01,9.70
2014,12,11,11,02,6.80
2014,12,11,11,03,5.00
2014,12,11,11,04,6.30
2014,12,11,11,05,4.10
2014,12,11,11,06,5.40
2014,12,11,11,07,3.30
2014,12,11,11,08,2.70
2014,12,11,11,09,4.70
2014,12,11,11,10,7.40
2014,12,11,11,11,4.90
2014,12,11,11,12,5.70
2014,12,11,11,13,5.10
2014,12,11,11,14,4.80
2014,12,11,11,15,5.70
2014,12,11,11,16,4.60
2014,12,11,11,17,4.80
2014,12,11,11,18,5.90
2014,12,11,11,19,5.80
2014,12,11,11,20,5.60
2014,12,11,11,21,6.30
2014,12,11,11,22,8.20
2014,12,11,11,23,8.30
2014,12,11,11,24,11.20
2014,12,11,11,25,9.90
2014,12,11,11,26,6.10
2014,12,11,11,27,7.10
2014,12,11,11,28,5.80
2014,12,11,11,29,7.10
2014,12,11,11,30,6.80
2014,12,11,11,31,10.60
2014,12,11,11,32,9.30
2014,12,11,11,33,4.70
2014,12,11,11,34,7.20
2014,12,11,11,35,2.20
2014,12,11,11,36,1.30
2014,12,11,11,37,2.40
2014,12,11,11,38,4.20
2014,12,11,11,39,7.70
2014,12,11,11,40,6.60
2014,12,11,11,41,6.70
2014,12,11,11,42,5.80
2014,12,11,11,43,3.30
2014,12,11,11,44,2.60
2014,12,11,11,45,5.50
2014,12,11,11,46,4.20
2014,12,11,11,47,3.90
2014,12,11,11,48,6.20
2014,12,11,11,49,6.70
2014,12,11,11,50,4.70
2014,12,11,11,51,3.70
2014,12,11,11,52,4.20
2014,12,11,11,53,4.10
2014,12,11,11,54,4.30
2014,12,11,11,55,5.00
2014,12,11,11,56,3.30
2014,12,11,11,57,0.90
2014,12,11,11,58,3.80
2014,12,11,11,59,5.60
2014,12,11,12,00,3.10
2014,12,11,12,01,3.00
2014,12,11,12,02,3.50
2014,12,11,12,03,2.70
2014,12,11,12,04,1.60
2014,12,11,12,05,0.40
2014,12,11,12,06,0.30
2014,12,11,12,07,0.70
2014,12,11,12,08,0.10
2014,12,11,12,09,0.70
2014,12,11,12,10,1.30
2014,12,11,12,11,1.60
2014,12,11,12,12,2.40
2014,12,11,12,13,1.90
2014,12,11,12,14,1.50
2014,12,11,12,15,0.80
2014,12,11,12,16,1.30
2014,12,11,12,17,1.00
2014,12,11,12,18,0.90
2014,12,11,12,19,1.20
2014,12,11,12,20,1.20
2014,12,11,12,21,1.70
2014,12,11,12,22,0.90
2014,12,11,12,23,0.90
2014,12,11,12,24,1.40
2014,12,11,12,25,0.70
2014,12,11,12,26,1.60
2014,12,11,12,27,2.20
2014,12,11,12,28,1.80
2014,12,11,12,29,2.10
2014,12,11,12,30,2.90
2014,12,11,12,31,4.00
2014,12,11,12,32,8.30
2014,12,11,12,33,4.80
2014,12,11,12,34,8.70
2014,12,11,12,35,6.70
2014,12,11,12,36,6.00
2014,12,11,12,37,5.70
2014,12,11,12,38,7.40
2014,12,11,12,39,7.70
2014,12,11,12,40,11.70
2014,12,11,12,41,11.80
2014,12,11,12,42,12.30
2014,12,11,12,43,8.30
2014,12,11,12,44,7.50
2014,12,11,12,45,4.30
2014,12,11,12,46,10.90
2014,12,11,12,47,6.90
2014,12,11,12,48,7.70
2014,12,11,12,49,5.60
2014,12,11,12,50,3.00
2014,12,11,12,51,4.30
2014,12,11,12,52,1.60
2014,12,11,12,53,2.30
2014,12,11,12,54,3.20
2014,12,11,12,55,3.00
2014,12,11,12,56,5.80
2014,12,11,12,57,3.80
2014,12,11,12,58,6.60
2014,12,11,12,59,6.50
2014,12,11,13,00,3.70
2014,12,11,13,01,7.30
2014,12,11,13,02,7.10
2014,12,11,13,03,5.20
2014,12,11,13,04,5.90
2014,12,11,13,05,5.50
2014,12,11,13,06,1.60
2014,12,11,13,07,2.40
2014,12,11,13,08,5.30
2014,12,11,13,09,6.70
2014,12,11,13,10,6.70
2014,12,11,13,11,8.00
2014,12,11,13,12,6.70
2014,12,11,13,13,3.40
2014,12,11,13,14,3.70
2014,12,11,13,15,3.00
2014,12,11,13,16,6.10
2014,12,11,13,17,7.70
2014,12,11,13,18,7.30
2014,12,11,13,19,6.90
2014,12,11,13,20,4.90
2014,12,11,13,21,3.60
2014,12,11,13,22,3.90
2014,12,11,13,23,2.10
2014,12,11,13,24,1.70
2014,12,11,13,25,1.60
2014,12,11,13,26,3.40
2014,12,11,13,27,3.40
2014,12,11,13,28,2.20
2014,12,11,13,29,1.40
2014,12,11,13,30,4.00
2014,12,11,13,31,4.20
2014,12,11,13,32,5.00
2014,12,11,13,33,5.60
2014,12,11,13,34,6.40
2014,12,11,13,35,4.30
2014,12,11,13,36,4.70
2014,12,11,13,37,3.40
2014,12,11,13,38,2.10
2014,12,11,13,39,2.60
2014,12,11,13,40,2.70
2014,12,11,13,41,3.50
2014,12,11,13,42,2.10
2014,12,11,13,43,3.70
2014,12,11,13,44,4.50
2014,12,11,13,45,4.00
2014,12,11,13,46,2.20
2014,12,11,13,47,3.60
2014,12,11,13,48,4.50
2014,12,11,13,49,4.70
2014,12,11,13,50,4.90
2014,12,11,13,51,4.00
2014,12,11,13,52,4.50
2014,12,11,13,53,5.30
2014,12,11,13,54,4.80
2014,12,11,13,55,3.30
2014,12,11,13,56,0.90
2014,12,11,13,57,4.40
2014,12,11,13,58,4.50
2014,12,11,13,59,3.70
2014,12,11,14,00,4.90
2014,12,11,14,01,5.60
2014,12,11,14,02,5.20
2014,12,11,14,03,3.00
2014,12,11,14,04,0.60
2014,12,11,14,05,1.20
2014,12,11,14,06,2.10
2014,12,11,14,07,2.00
2014,12,11,14,08,1.40
2014,12,11,14,09,2.10
2014,12,11,14,10,2.90
2014,12,11,14,11,1.10
2014,12,11,14,12,0.10
2014,12,11,14,13,1.20
2014,12,11,14,14,3.40
2014,12,11,14,15,2.20
2014,12,11,14,16,1.20
2014,12,11,14,17,2.60
2014,12,11,14,18,3.70
2014,12,11,14,19,2.20
2014,12,11,14,20,1.90
2014,12,11,14,21,0.30
2014,12,11,14,22,0.50
2014,12,11,14,23,0.40
2014,12,11,14,24,1.20
2014,12,11,14,25,1.20
2014,12,11,14,26,1.10
2014,12,11,14,27,2.40
2014,12,11,14,28,2.80
2014,12,11,14,29,1.80
2014,12,11,14,30,3.00
2014,12,11,14,31,2.50
2014,12,11,14,32,0.90
2014,12,11,14,33,0.90
2014,12,11,14,34,0.00
2014,12,11,14,35,0.80
2014,12,11,14,36,2.00
2014,12,11,14,37,1.20
2014,12,11,14,38,1.20
2014,12,11,14,39,0.40
2014,12,11,14,40,0.00
2014,12,11,14,41,0.40
2014,12,11,14,42,0.50
2014,12,11,14,43,1.20
2014,12,11,14,44,2.70
2014,12,11,14,45,3.40
2014,12,11,14,46,5.00
2014,12,11,14,47,4.70
2014,12,11,14,48,4.20
2014,12,11,14,49,1.80
2014,12,11,14,50,1.80
2014,12,11,14,51,0.10
2014,12,11,14,52,0.60
2014,12,11,14,53,0.60
2014,12,11,14,54,0.00
2014,12,11,14,55,0.00
2014,12,11,14,56,0.10
2014,12,11,14,57,1.00
2014,12,11,14,58,1.80
2014,12,11,14,59,1.60
2014,12,11,15,00,1.70
2014,12,11,15,01,1.30
2014,12,11,15,02,0.60
2014,12,11,15,03,0.00
2014,12,11,15,04,0.00
2014,12,11,15,05,0.40
2014,12,11,15,06,0.00
2014,12,11,15,07,0.00
2014,12,11,15,08,0.10
2014,12,11,15,09,0.60
2014,12,11,15,10,0.50
2014,12,11,15,11,0.10
2014,12,11,15,12,0.10
2014,12,11,15,13,1.60
2014,12,11,15,14,2.30
2014,12,11,15,15,2.90
2014,12,11,15,16,3.70
2014,12,11,15,17,3.00
2014,12,11,15,18,1.70
2014,12,11,15,19,1.00
2014,12,11,15,20,1.60
2014,12,11,15,21,1.80
2014,12,11,15,22,1.90
2014,12,11,15,23,2.00
2014,12,11,15,24,1.70
2014,12,11,15,25,2.20
2014,12,11,15,26,0.20
2014,12,11,15,27,0.00
2014,12,11,15,28,0.40
2014,12,11,15,29,1.40
2014,12,11,15,30,1.70
2014,12,11,15,31,0.60
2014,12,11,15,32,0.50
2014,12,11,15,33,0.50
2014,12,11,15,34,0.00
2014,12,11,15,35,0.00
2014,12,11,15,36,0.00
2014,12,11,15,37,0.10
2014,12,11,15,38,0.60
2014,12,11,15,39,0.30
2014,12,11,15,40,1.60
2014,12,11,15,41,1.80
2014,12,11,15,42,2.50
2014,12,11,15,43,2.30
2014,12,11,15,44,1.80
2014,12,11,15,45,1.70
2014,12,11,15,46,2.10
2014,12,11,15,47,2.50
2014,12,11,15,48,2.10
2014,12,11,15,49,1.80
2014,12,11,15,50,1.30
2014,12,11,15,51,1.50
2014,12,11,15,52,1.00
2014,12,11,15,53,1.70
2014,12,11,15,54,3.50
2014,12,11,15,55,3.20
2014,12,11,15,56,4.00
2014,12,11,15,57,2.10
2014,12,11,15,58,0.20
2014,12,11,15,59,0.30
2014,12,11,16,00,0.90
2014,12,11,16,01,1.20
2014,12,11,16,02,1.40
2014,12,11,16,03,1.90
2014,12,11,16,04,1.60
2014,12,11,16,05,0.20
2014,12,11,16,06,0.00
2014,12,11,16,07,0.10
2014,12,11,16,08,0.00
2014,12,11,16,09,0.00
2014,12,11,16,10,0.40
2014,12,11,16,11,1.50
2014,12,11,16,12,1.20
2014,12,11,16,13,0.20
2014,12,11,16,14,0.00
2014,12,11,16,15,0.10
2014,12,11,16,16,1.80
2014,12,11,16,17,1.30
2014,12,11,16,18,0.70
2014,12,11,16,19,0.10
2014,12,11,16,20,0.30
2014,12,11,16,21,0.90
2014,12,11,16,22,0.70
2014,12,11,16,23,0.80
2014,12,11,16,24,1.10
2014,12,11,16,25,1.30
2014,12,11,16,26,1.40
2014,12,11,16,27,1.80
2014,12,11,16,28,1.80
2014,12,11,16,29,2.40
2014,12,11,16,30,3.50
2014,12,11,16,31,4.50
2014,12,11,16,32,5.90
2014,12,11,16,33,6.40
2014,12,11,16,34,4.50
2014,12,11,16,35,3.60
2014,12,11,16,36,2.20
2014,12,11,16,37,0.60
2014,12,11,16,38,0.00
2014,12,11,16,39,1.40
2014,12,11,16,40,2.00
2014,12,11,16,41,3.50
2014,12,11,16,42,3.50
2014,12,11,16,43,3.00
2014,12,11,16,44,2.70
2014,12,11,16,45,2.20
2014,12,11,16,46,0.90
2014,12,11,16,47,2.80
2014,12,11,16,48,3.80
2014,12,11,16,49,0.80
2014,12,11,16,50,0.20
2014,12,11,16,51,3.10
2014,12,11,16,52,3.40
2014,12,11,16,53,4.80
2014,12,11,16,54,4.10
2014,12,11,16,55,3.50
2014,12,11,16,56,4.20
2014,12,11,16,57,5.10
2014,12,11,16,58,5.30
2014,12,11,16,59,5.50
2014,12,11,17,00,5.90
2014,12,11,17,01,5.40
2014,12,11,17,02,5.50
2014,12,11,17,03,4.40
2014,12,11,17,04,2.30
2014,12,11,17,05,0.80
2014,12,11,17,06,1.20
2014,12,11,17,07,1.90
2014,12,11,17,08,0.80
2014,12,11,17,09,0.10
2014,12,11,17,10,1.60
2014,12,11,17,11,0.90
2014,12,11,17,12,1.50
2014,12,11,17,13,1.90
2014,12,11,17,14,1.30
2014,12,11,17,15,0.70
2014,12,11,17,16,0.50
2014,12,11,17,17,2.50
2014,12,11,17,18,3.40
2014,12,11,17,19,2.80
2014,12,11,17,20,2.40
2014,12,11,17,21,3.90
2014,12,11,17,22,3.40
2014,12,11,17,23,4.90
2014,12,11,17,24,3.50
2014,12,11,17,25,2.20
2014,12,11,17,26,1.40
2014,12,11,17,27,2.20
2014,12,11,17,28,3.30
2014,12,11,17,29,2.30
2014,12,11,17,30,2.80
2014,12,11,17,31,1.90
2014,12,11,17,32,3.20
2014,12,11,17,33,4.50
2014,12,11,17,34,4.00
2014,12,11,17,35,3.90
2014,12,11,17,36,4.40
2014,12,11,17,37,3.30
2014,12,11,17,38,3.40
2014,12,11,17,39,3.70
2014,12,11,17,40,3.50
2014,12,11,17,41,4.30
2014,12,11,17,42,4.80
2014,12,11,17,43,3.90
2014,12,11,17,44,6.00
2014,12,11,17,45,3.20
2014,12,11,17,46,4.70
2014,12,11,17,47,5.30
2014,12,11,17,48,3.60
2014,12,11,17,49,4.40
2014,12,11,17,50,3.40
2014,12,11,17,51,3.60
2014,12,11,17,52,3.50
2014,12,11,17,53,3.10
2014,12,11,17,54,5.10
2014,12,11,17,55,3.70
2014,12,11,17,56,2.70
2014,12,11,17,57,3.90
2014,12,11,17,58,1.50
2014,12,11,17,59,1.70
2014,12,11,18,00,2.30
2014,12,11,18,01,2.40
2014,12,11,18,02,2.70
2014,12,11,18,03,1.70